[Iaude] MPEC U11: 2023 TT15 [a=1.76,e=0.43,i=3.5,H=28.1]

mpec at marsden.cfa.harvard.edu mpec at marsden.cfa.harvard.edu
Mon Oct 16 09:29:02 EDT 2023


M.P.E.C. 2023-U11                              Issued 2023 October 16, 13:27 UT

     The Minor Planet Electronic Circulars contain information on unusual
         minor planets, routine data on comets and natural satellites,
         and occasional editorial announcements.  They are published
    on behalf of Division F of the International Astronomical Union by the
          Minor Planet Center, Smithsonian Astrophysical Observatory,
                          Cambridge, MA 02138, U.S.A.
			  
             Prepared using the Tamkin Foundation Computer Network

                              MPC at CFA.HARVARD.EDU
            URL https://www.minorplanetcenter.net/    ISSN 1523-6714

                                   2023 TT15                                    


Observations:
     K23T15T*1C2023 10 15.24601701 18 51.361-04 00 45.11         19.96GVEU011G96
     K23T15T 1C2023 10 15.25128001 19 03.234-04 01 10.02         19.88GVEU011G96
     K23T15T 1C2023 10 15.25652101 19 15.114-04 01 34.97         19.85GVEU011G96
     K23T15T 1C2023 10 15.26176801 19 26.972-04 01 59.81         19.69GVEU011G96
     K23T15T  C2023 10 15.29170701 20 17.01 -03 55 56.2                WEU011X09
     K23T15T  C2023 10 15.29611001 20 43.464-04 04 53.39         20.0 GVEU011H01
     K23T15T  C2023 10 15.29870501 20 33.08 -03 56 27.5                WEU011X09
     K23T15T  C2023 10 15.30147901 20 55.724-04 05 18.84         20.5 GVEU011H01
     K23T15T  C2023 10 15.30793501 21 10.514-04 05 49.43         20.8 GVEU011H01
     K23T15T  C2023 10 15.31888801 21 35.624-04 06 41.08         19.7 GVEU011H01
     K23T15T mC2023 10 15.32294901 21 46.566-04 06 50.33         20.06GVEU011I52
     K23T15T mC2023 10 15.32318901 21 47.131-04 06 51.30         19.94GVEU011I52
     K23T15T mC2023 10 15.32342901 21 47.675-04 06 52.52         19.86GVEU011I52
     K23T15T mC2023 10 15.32366901 21 48.186-04 06 53.42         20.13GVEU011I52
     K23T15T KC2023 10 15.43397801 26 06.515-04 15 30.67         19.77GVEU011I52
     K23T15T KC2023 10 15.43456001 26 07.890-04 15 33.34         19.89GVEU011I52
     K23T15T KC2023 10 15.43514201 26 09.301-04 15 36.04         20.00GVEU011I52
     K23T15T KC2023 10 15.43572601 26 10.705-04 15 38.48         19.89GVEU011I52
     K23T15T KC2023 10 16.23079002 02 34.25 -05 20 29.5          20.4 GXEU011858
     K23T15T KC2023 10 16.23669802 02 50.37 -05 20 59.1          19.7 GXEU011858
     K23T15T KC2023 10 16.24237402 03 05.87 -05 21 27.3          19.7 GXEU011858
     K23T15T KC2023 10 16.26427702 04 08.008-05 22 55.81         19.52GVEU011I52
     K23T15T KC2023 10 16.26472202 04 09.203-05 22 57.79         19.59GVEU011I52
     K23T15T KC2023 10 16.26516902 04 10.452-05 22 59.70         20.04GVEU011I52
     K23T15T KC2023 10 16.26824002 04 18.797-05 23 15.22         20.01GVEU011I52

Observer details:
858 Tebbutt Observatory, Edgewood.  Observer F. B. Zoltowski.  0.51-m f/8.1
    Schmidt-Cassegrain + CCD.
G96 Mt. Lemmon Survey.  Observer D. C. Fuls.  Measurers E. C. Beshore, D. Fay,
    J. B. Fazekas, D. C. Fuls, A. R. Gibbs, A. D. Grauer, H. Groeller, J. K.
    Hogan, R. A. Kowalski, S. M. Larson, G. J. Leonard, D. Rankin, R. L.
    Seaman, F. C. Shelly, K. W. Wierzchos.  1.5-m reflector + 10K CCD.
H01 Magdalena Ridge Observatory, Socorro.  Observers W. H. Ryan, E. V. Ryan.
    Measurer W. H. Ryan.  2.4-m f/8.9 Ritchey-Chretien + CCD.
I52 Steward Observatory, Mt. Lemmon Station.  Observer J. K. Hogan.  Measurers
    E. C. Beshore, D. Fay, J. B. Fazekas, D. C. Fuls, A. R. Gibbs, A. D.
    Grauer, H. Groeller, J. K. Hogan, R. A. Kowalski, S. M. Larson, G. J.
    Leonard, D. Rankin, R. L. Seaman, F. C. Shelly, K. W. Wierzchos.  1.0-m
    prime focus + CCD.
X09 Deep Random Survey, Rio Hurtado.  Observers A. Schnabel, D. Ruhela.
    Measurer S. Deen.  0.43-m reflector + CMOS.

Orbital elements:
2023 TT15                                                Earth MOID = 0.0139 AU
Epoch 2023 Sept. 13.0 TT = JDT 2460200.5                Veres                   
M 339.13475              (2000.0)            P               Q                  
n   0.42150128     Peri.  203.56918     +0.74985821     -0.66133482             
a   1.7617196      Node   197.87242     +0.61627474     +0.70847977             
e   0.4344416      Incl.    3.48945     +0.24066180     +0.24635883             
P   2.34           H   28.16          G   0.15           U   8                  
Residuals in seconds of arc
231015 G96  0.9+  0.2-    231015 H01  0.0   0.0     231016 858  0.5+  0.0
231015 G96  0.0   0.0     231015 I52  0.2+  0.2-    231016 858  0.6+  0.2-
231015 G96  0.1-  0.0     231015 I52  0.4+  0.0     231016 858  1.0+  0.1-
231015 G96  0.9-  0.2+    231015 I52  0.3+  0.1-    231016 I52  0.0   0.3-
231015 X09  1.2+  0.5-    231015 I52  0.3-  0.1+    231016 I52  0.2-  0.0
231015 H01  0.1+  0.1+    231015 I52  0.4+  0.1-    231016 I52  0.2+  0.3+
231015 X09  0.5-  0.3+    231015 I52  0.1+  0.1-    231016 I52  0.2-  0.0
231015 H01  0.1-  0.1+    231015 I52  0.3+  0.0
231015 H01  0.2+  0.0     231015 I52  0.4+  0.2+

Ephemeris:
2023 TT15                a,e,i = 1.76, 0.43, 3                   q = 0.9964
Date    TT    R. A. (2000) Decl.     Delta      r    Elong.  Phase     V
2023 09 16    22 03 44.0 +03 35 50   0.1250  1.1216   156.8    20.7    24.9
...
2023 10 01    22 19 45.1 +02 43 50   0.06495 1.0572   148.3    29.8    23.6
...
2023 10 09    23 03 30.0 +00 57 30   0.03608 1.0310   151.6    27.5    22.2
...
2023 10 15    01 08 59.2 -03 37 03   0.01875 1.0158   168.0    11.8    20.3
2023 10 16    01 51 24.6 -04 56 15   0.01710 1.0136   164.6    15.2    20.2
2023 10 17    02 40 56.7 -06 14 42   0.01615 1.0116   155.8    23.8    20.3
...
2023 10 23    06 40 35.4 -07 40 20   0.02543 1.0019   104.8    73.8    22.8
...
2023 10 31    08 04 19.0 -06 03 39   0.05135 0.9961    92.0    85.1    24.7
...
2023 11 15    08 41 02.7 -04 58 26   0.1013  1.0072    97.3    77.0    25.9

M. P. C. Staff               (C) Copyright 2023 MPC           M.P.E.C. 2023-U11





More information about the Iaude mailing list